Location: Newark
(53.3333°N, 83.7500°E)
Time: 22:19:17
(UTC+00:00)

SR - Pass Details

Date: 21 November 2019
Orbit: 573 x 882 km, 66.7° (Epoch: 12 December)

Event Time Altitude Azimuth Distance (km) Brightness Sun altitude
Rises 14:03:03 0° 307° (NW) 3,435 ? -32.5°
Reaches altitude 10° 14:05:58 10° 321° (NW) 2,525 ? -32.9°
Enters shadow 14:09:16 23° 353° (N) 1,801 ? -33.4°
